ZAP583 EGPF-EGCC

Flight info

Callsign ZAP583
Flight time 0h 34m
Altitude 23000
Route NORBO T256 DCS L612 LAKEY
Aircraft A320/M-SDE3FGHIRWY/LB1

Departure

Time 2026-05-04 15:30
Airport Glasgow Airport (EGPF)

Arrival

Time 2026-05-04 16:05
Airport Manchester Airport (EGCC)
Time Latitude Longitude Altitude Speed Heading
2026-05-04 15:12 55.86708 -4.43051 29 ft 0 kts 252°
2026-05-04 15:24 55.86715 -4.42992 29 ft 4 kts 278°
2026-05-04 15:25 55.86705 -4.42953 29 ft 4 kts 329°
2026-05-04 15:25 55.86698 -4.42946 29 ft 0 kts 343°
2026-05-04 15:27 55.86720 -4.42957 29 ft 20 kts 344°
2026-05-04 15:28 55.87055 -4.42808 29 ft 41 kts 20°
2026-05-04 15:28 55.87335 -4.42635 29 ft 42 kts 21°
2026-05-04 15:28 55.87639 -4.42159 29 ft 0 kts
2026-05-04 15:29 55.87696 -4.42160 29 ft 18 kts 348°
2026-05-04 15:30 55.87135 -4.43476 84 ft 153 kts 232°
2026-05-04 15:30 55.84517 -4.48368 2705 ft 219 kts 227°
2026-05-04 15:31 55.82120 -4.52542 4731 ft 256 kts 227°
2026-05-04 15:31 55.80824 -4.54800 5982 ft 263 kts 228°
2026-05-04 15:32 55.76832 -4.61794 9739 ft 275 kts 227°
2026-05-04 15:32 55.73955 -4.66883 11262 ft 309 kts 227°
2026-05-04 15:33 55.70818 -4.72361 13230 ft 322 kts 227°
2026-05-04 15:34 55.64304 -4.75991 15888 ft 352 kts 185°
2026-05-04 15:34 55.61833 -4.75796 16739 ft 361 kts 174°
2026-05-04 15:34 55.57444 -4.72908 18302 ft 378 kts 150°
2026-05-04 15:35 55.53273 -4.67130 19910 ft 388 kts 142°
2026-05-04 15:35 55.51158 -4.64107 20555 ft 398 kts 143°
2026-05-04 15:35 55.48934 -4.60943 20692 ft 421 kts 143°
2026-05-04 15:36 55.44177 -4.54185 21095 ft 453 kts 142°
2026-05-04 15:36 55.41708 -4.50677 21607 ft 457 kts 142°
2026-05-04 15:36 55.39225 -4.47148 22155 ft 459 kts 142°
2026-05-04 15:37 55.36734 -4.43609 22674 ft 462 kts 142°
2026-05-04 15:37 55.34237 -4.40009 23187 ft 464 kts 139°
2026-05-04 15:37 55.31882 -4.36088 23669 ft 467 kts 136°
2026-05-04 15:37 55.29546 -4.32079 24075 ft 470 kts 136°
2026-05-04 15:38 55.27212 -4.28013 24431 ft 474 kts 136°
2026-05-04 15:38 55.24904 -4.23961 24801 ft 478 kts 136°
2026-05-04 15:38 55.22517 -4.19772 25011 ft 479 kts 135°
2026-05-04 15:38 55.20160 -4.15645 25053 ft 483 kts 136°
2026-05-04 15:39 55.17793 -4.11528 25048 ft 485 kts 135°
2026-05-04 15:39 55.15400 -4.07384 25051 ft 485 kts 136°
2026-05-04 15:39 55.10581 -3.99099 25051 ft 486 kts 136°
2026-05-04 15:40 55.08185 -3.94989 25046 ft 484 kts 136°
2026-05-04 15:40 55.05784 -3.90878 25040 ft 482 kts 136°
2026-05-04 15:40 55.03380 -3.86765 25039 ft 484 kts 136°
2026-05-04 15:40 55.00968 -3.82645 25045 ft 484 kts 136°
2026-05-04 15:41 54.98568 -3.78549 25057 ft 483 kts 136°
2026-05-04 15:41 54.96165 -3.74462 25061 ft 483 kts 136°
2026-05-04 15:41 54.93760 -3.70378 25057 ft 482 kts 135°
2026-05-04 15:41 54.91353 -3.66294 25053 ft 481 kts 135°
2026-05-04 15:42 54.88960 -3.62241 25052 ft 482 kts 135°
2026-05-04 15:42 54.86558 -3.58187 25045 ft 481 kts 135°
2026-05-04 15:42 54.84187 -3.54199 25046 ft 481 kts 135°
2026-05-04 15:42 54.81750 -3.50105 25045 ft 481 kts 135°
2026-05-04 15:43 54.79380 -3.46127 25043 ft 481 kts 135°
2026-05-04 15:43 54.76934 -3.42028 25035 ft 482 kts 135°
2026-05-04 15:43 54.74524 -3.38041 25034 ft 482 kts 138°
2026-05-04 15:43 54.71919 -3.34539 25033 ft 482 kts 146°
2026-05-04 15:44 54.69002 -3.31667 25032 ft 482 kts 154°
2026-05-04 15:44 54.65910 -3.29321 25034 ft 482 kts 156°
2026-05-04 15:44 54.62835 -3.27031 25037 ft 482 kts 156°
2026-05-04 15:44 54.59755 -3.24739 25050 ft 481 kts 156°
2026-05-04 15:45 54.56684 -3.22450 25045 ft 481 kts 156°
2026-05-04 15:45 54.53617 -3.20159 25052 ft 480 kts 156°
2026-05-04 15:45 54.50542 -3.17860 24909 ft 477 kts 156°
2026-05-04 15:45 54.47496 -3.15573 25052 ft 480 kts 156°
2026-05-04 15:46 54.44428 -3.13283 25060 ft 481 kts 156°
2026-05-04 15:46 54.41392 -3.11027 25062 ft 481 kts 155°
2026-05-04 15:46 54.38324 -3.08755 25063 ft 480 kts 155°
2026-05-04 15:46 54.35265 -3.06494 25022 ft 480 kts 155°
2026-05-04 15:47 54.32211 -3.04241 24348 ft 475 kts 156°
2026-05-04 15:47 54.29184 -3.02012 23096 ft 470 kts 156°
2026-05-04 15:47 54.26206 -2.99826 21756 ft 464 kts 156°
2026-05-04 15:47 54.23320 -2.97424 20500 ft 458 kts 150°
2026-05-04 15:48 54.20671 -2.94516 19294 ft 444 kts 146°
2026-05-04 15:48 54.18100 -2.91614 18158 ft 440 kts 147°
2026-05-04 15:48 54.13060 -2.85950 15743 ft 427 kts 147°
2026-05-04 15:49 54.10589 -2.83182 14734 ft 425 kts 147°
2026-05-04 15:49 54.08128 -2.80432 13747 ft 419 kts 148°
2026-05-04 15:49 54.05704 -2.77727 12745 ft 414 kts 148°
2026-05-04 15:49 54.03316 -2.75067 12154 ft 401 kts 148°
2026-05-04 15:50 54.01063 -2.72556 12024 ft 374 kts 148°
2026-05-04 15:50 53.98947 -2.70201 11895 ft 352 kts 149°
2026-05-04 15:50 53.96953 -2.67985 11769 ft 334 kts 149°
2026-05-04 15:50 53.95049 -2.65874 11640 ft 319 kts 148°
2026-05-04 15:51 53.93233 -2.63862 11498 ft 306 kts 148°
2026-05-04 15:51 53.91489 -2.61933 11203 ft 300 kts 148°
2026-05-04 15:51 53.89753 -2.60015 11046 ft 297 kts 148°
2026-05-04 15:51 53.88015 -2.58099 11060 ft 299 kts 148°
2026-05-04 15:52 53.86275 -2.56185 11064 ft 299 kts 148°
2026-05-04 15:52 53.84522 -2.54256 11064 ft 299 kts 148°
2026-05-04 15:52 53.82775 -2.52332 11064 ft 299 kts 148°
2026-05-04 15:52 53.81032 -2.50415 11067 ft 299 kts 148°
2026-05-04 15:53 53.79283 -2.48497 11050 ft 297 kts 148°
2026-05-04 15:53 53.77585 -2.46629 10944 ft 286 kts 148°
2026-05-04 15:53 53.75951 -2.44835 10823 ft 275 kts 148°
2026-05-04 15:53 53.74367 -2.43102 10698 ft 267 kts 148°
2026-05-04 15:54 53.72823 -2.41415 10489 ft 263 kts 148°
2026-05-04 15:54 53.71297 -2.39736 10233 ft 261 kts 146°
2026-05-04 15:54 53.70049 -2.37552 9990 ft 259 kts 124°
2026-05-04 15:54 53.69111 -2.35000 9689 ft 259 kts 121°
2026-05-04 15:55 53.68204 -2.32386 9387 ft 258 kts 120°
2026-05-04 15:55 53.67305 -2.29779 9089 ft 256 kts 120°
2026-05-04 15:55 53.66401 -2.27157 8796 ft 255 kts 120°
2026-05-04 15:55 53.65520 -2.24601 8496 ft 253 kts 120°
2026-05-04 15:56 53.64638 -2.22039 8196 ft 252 kts 120°
2026-05-04 15:56 53.63761 -2.19492 7898 ft 250 kts 120°
2026-05-04 15:56 53.62891 -2.16964 7591 ft 249 kts 120°
2026-05-04 15:56 53.62025 -2.14448 7299 ft 247 kts 120°
2026-05-04 15:57 53.61166 -2.11952 7000 ft 246 kts 120°
2026-05-04 15:57 53.60313 -2.09470 6702 ft 244 kts 120°
2026-05-04 15:57 53.59465 -2.06999 6458 ft 241 kts 121°
2026-05-04 15:57 53.58644 -2.04599 6329 ft 233 kts 120°
2026-05-04 15:58 53.57860 -2.02305 6192 ft 224 kts 120°
2026-05-04 15:58 53.57098 -2.00080 6066 ft 215 kts 120°
2026-05-04 15:58 53.56368 -1.97951 5933 ft 206 kts 120°
2026-05-04 15:58 53.55618 -1.95946 5753 ft 200 kts 134°
2026-05-04 15:59 53.54449 -1.94793 5482 ft 197 kts 165°
2026-05-04 15:59 53.53107 -1.94503 5260 ft 194 kts 183°
2026-05-04 15:59 53.51794 -1.94926 5046 ft 192 kts 201°
2026-05-04 15:59 53.50630 -1.95999 4837 ft 191 kts 219°
2026-05-04 16:00 53.49719 -1.97598 4594 ft 189 kts 232°
2026-05-04 16:00 53.48896 -1.99324 4338 ft 188 kts 232°
2026-05-04 16:00 53.48080 -2.01035 4082 ft 188 kts 232°
2026-05-04 16:00 53.47267 -2.02736 3825 ft 186 kts 232°
2026-05-04 16:01 53.46464 -2.04416 3579 ft 186 kts 232°
2026-05-04 16:01 53.45664 -2.06087 3319 ft 176 kts 232°
2026-05-04 16:01 53.44909 -2.07664 3087 ft 170 kts 232°
2026-05-04 16:01 53.44176 -2.09195 2860 ft 167 kts 232°
2026-05-04 16:02 53.43449 -2.10710 2612 ft 166 kts 232°
2026-05-04 16:02 53.42728 -2.12214 2398 ft 165 kts 232°
2026-05-04 16:02 53.41291 -2.15206 1944 ft 164 kts 232°
2026-05-04 16:03 53.40574 -2.16684 1727 ft 163 kts 231°
2026-05-04 16:03 53.39838 -2.18138 1647 ft 164 kts 230°
2026-05-04 16:03 53.39130 -2.19634 1381 ft 164 kts 236°
2026-05-04 16:03 53.38464 -2.21164 963 ft 161 kts 231°
2026-05-04 16:04 53.37741 -2.22574 797 ft 158 kts 230°
2026-05-04 16:04 53.36360 -2.25434 389 ft 156 kts 231°
2026-05-04 16:04 53.35701 -2.26830 275 ft 140 kts 229°
2026-05-04 16:05 53.35228 -2.27797 249 ft 66 kts 231°
2026-05-04 16:05 53.35042 -2.28191 237 ft 47 kts 232°
2026-05-04 16:05 53.34944 -2.28663 233 ft 4 kts 268°
2026-05-04 16:06 53.34945 -2.28694 232 ft 5 kts 276°
2026-05-04 16:06 53.35000 -2.28754 231 ft 0 kts 24°
2026-05-04 16:07 53.35050 -2.28602 235 ft 18 kts 41°
2026-05-04 16:07 53.35445 -2.28155 239 ft 24 kts 10°
2026-05-04 16:08 53.35507 -2.28113 239 ft 4 kts 32°
2026-05-04 16:08 53.35662 -2.27890 247 ft 14 kts
2026-05-04 16:09 53.35835 -2.27859 248 ft 19 kts
2026-05-04 16:09 53.36049 -2.27975 248 ft 10 kts 309°
2026-05-04 16:10 53.36130 -2.28108 248 ft 15 kts 316°
2026-05-04 16:11 53.36312 -2.28417 248 ft 0 kts 315°
2026-05-04 16:13 53.36343 -2.28462 248 ft 12 kts 330°
2026-05-04 16:13 53.36539 -2.28688 248 ft 23 kts 312°
2026-05-04 16:14 53.36740 -2.29073 248 ft 13 kts 324°
2026-05-04 16:14 53.36786 -2.29082 248 ft 0 kts 357°
2026-05-04 16:15 53.36799 -2.29180 248 ft 0 kts 287°